{"data":{"norad_id":45060,"intl_designator":"2020-006S","name":"STARLINK-1166","alt_names":[],"object_type":"PAYLOAD","status":"ACTIVE","operator":null,"country":"US","launch_date":"2020-01-29","launch_site_code":"AFETR","launch_vehicle":null,"mission":null,"orbit_class":"UNKNOWN","rcs_meters":null,"size_class":null,"mass_kg":null,"dimensions":null,"purposes":["comms"],"wikipedia_slug":null,"has_3d_model":false,"image_url":null,"decayed_at":null,"tle_current":{"epoch":"2026-09-20T00:31:49.043424Z","epoch_age_seconds":56026,"freshness":"FRESH","line1":"1 45060U 20006S   26263.02209541  .00074216  00000+0  40842-3 0  9995","line2":"2 45060  53.0367  43.0717 0003576 314.9090  45.1640 15.79066395367030","mean_motion":15.79066395,"eccentricity":0.0003576,"inclination_deg":53.0367,"raan_deg":43.0717,"arg_perigee_deg":314.909,"mean_anomaly_deg":45.164,"bstar":0.00040842,"rev_number":36703,"period_min":91.193125543021,"perigee_km":330.68468845868,"apogee_km":335.48455416224,"semimajor_km":6711.2216213105,"source":"CELESTRAK","updated_at":"2026-09-20T09:00:38.223039Z"}}}